Regional Weather Roundup
Issued by NWS Goodland, KS

Home | Current Version | Previous Version | Graphics & Text | Print | Product List | Glossary On
Versions: 1 2 3 4 5 6 7 8 9 10 11 12 13 14 15 16 17 18 19 20 21 22 23 24 25 26 27 28 29 30 31 32 33 34 35 36 37 38 39 40 41 42 43 44 45 46 47 48 49 50
000
ASUS43 KGLD 242108
RWRGLD

GOODLAND FORECAST AREA HOURLY WEATHER ROUNDUP
NATIONAL WEATHER SERVICE GOODLAND KS
300 PM MDT SUN JUL 24 2016

...OFFICIAL OBSERVATIONS...

CITY           SKY/WX    TMP DP  RH WIND       PRES   REMARKS
GOODLAND KS    LGT RAIN  91  57  31 E18G24    30.08F
HILL CITY KS   SUNNY     90  64  42 E15       30.03F
IMPERIAL NEB   SUNNY     88  53  30 E9        30.09R
MCCOOK NEB     SUNNY     89  58  34 E25       30.04F
AKRON CO       SUNNY     84  58  40 SE20G25   30.13F
BURLINGTON CO  SUNNY     91  53  27 E16       30.10F
LIMON CO       SUNNY     90  55  30 SE18G25   30.15F
$$

...UNOFFICIAL OBSERVATIONS...

CITY           SKY/WX    TMP DP  RH WIND       PRES   REMARKS
COLBY KS       SUNNY     91  63  38 E17       30.07F
LENORA KS        N/A     90  32  12 MISG        N/A
NORTON KS      SUNNY     90  48  24 NE15G21   30.05S
SHARON SPRINGS   N/A     93  64  37 E5G20       N/A
KIT CARSON CO    N/A     91  61  36 MISG        N/A
YUMA CO          N/A     85  62  45 E14         N/A
$$




USA.gov is the U.S. government's official web portal to all federal, state and local government web resources and services.